AAL941 KORD-KDCA

Flight info

Callsign AAL941
Flight time 1h 43m
Altitude 35000
Route RAYNR BRTMN TAAYZ SQUIB HAUCK HRRSH HOCKE Q935 WOZEE/N0459F360 BFD/N0458F370 PSB SKILS5
Aircraft B738/M-SDE2E3FGHIRWXY/LB1

Departure

Time 2026-05-05 21:46
Airport Chicago O'Hare International Airport (KORD)

Arrival

Time 2026-05-05 23:29
Airport Ronald Reagan Washington National Airport (KDCA)
Time Latitude Longitude Altitude Speed Heading
2026-05-05 21:14 41.97657 -87.90644 669 ft 0 kts
2026-05-05 21:33 41.97657 -87.90645 669 ft 1 kts
2026-05-05 21:33 41.97632 -87.90662 670 ft 5 kts 43°
2026-05-05 21:33 41.97623 -87.90672 668 ft 0 kts 86°
2026-05-05 21:34 41.97628 -87.90690 669 ft 0 kts 150°
2026-05-05 21:34 41.97630 -87.90692 669 ft 0 kts 172°
2026-05-05 21:34 41.97634 -87.90694 668 ft 0 kts 197°
2026-05-05 21:36 41.97633 -87.90694 668 ft 1 kts 198°
2026-05-05 21:36 41.97608 -87.90743 670 ft 10 kts 248°
2026-05-05 21:37 41.97584 -87.90834 671 ft 11 kts 249°
2026-05-05 21:37 41.97556 -87.90932 671 ft 12 kts 249°
2026-05-05 21:37 41.97524 -87.91035 669 ft 11 kts 242°
2026-05-05 21:37 41.97485 -87.91055 669 ft 4 kts 154°
2026-05-05 21:38 41.97457 -87.91025 670 ft 7 kts 141°
2026-05-05 21:38 41.97424 -87.90989 670 ft 11 kts 141°
2026-05-05 21:38 41.97351 -87.90936 670 ft 3 kts 192°
2026-05-05 21:38 41.97325 -87.90948 668 ft 4 kts 199°
2026-05-05 21:39 41.97307 -87.90978 671 ft 5 kts 235°
2026-05-05 21:39 41.97300 -87.90990 668 ft 0 kts 234°
2026-05-05 21:39 41.97303 -87.90984 669 ft 3 kts 230°
2026-05-05 21:40 41.97306 -87.90975 671 ft 1 kts 173°
2026-05-05 21:40 41.97288 -87.90949 670 ft 9 kts 135°
2026-05-05 21:40 41.97228 -87.90861 669 ft 15 kts 133°
2026-05-05 21:40 41.97170 -87.90743 668 ft 16 kts 110°
2026-05-05 21:41 41.97149 -87.90603 665 ft 12 kts 94°
2026-05-05 21:41 41.97144 -87.90494 665 ft 12 kts 94°
2026-05-05 21:41 41.97139 -87.90388 667 ft 11 kts 91°
2026-05-05 21:41 41.97139 -87.90282 667 ft 12 kts 90°
2026-05-05 21:42 41.97136 -87.90160 666 ft 9 kts 99°
2026-05-05 21:42 41.97107 -87.90129 666 ft 5 kts 181°
2026-05-05 21:42 41.97071 -87.90128 667 ft 5 kts 167°
2026-05-05 21:42 41.97043 -87.90066 668 ft 12 kts 91°
2026-05-05 21:43 41.97043 -87.89945 669 ft 13 kts 88°
2026-05-05 21:43 41.97044 -87.89826 669 ft 13 kts 90°
2026-05-05 21:43 41.97044 -87.89710 669 ft 12 kts 90°
2026-05-05 21:43 41.97042 -87.89602 669 ft 10 kts 100°
2026-05-05 21:44 41.97007 -87.89562 669 ft 7 kts 175°
2026-05-05 21:44 41.96987 -87.89565 670 ft 0 kts 183°
2026-05-05 21:45 41.96986 -87.89565 670 ft 2 kts 183°
2026-05-05 21:45 41.96921 -87.89587 669 ft 15 kts 220°
2026-05-05 21:45 41.96906 -87.89844 669 ft 60 kts 270°
2026-05-05 21:45 41.96904 -87.90758 665 ft 132 kts 270°
2026-05-05 21:46 41.96899 -87.92250 834 ft 179 kts 270°
2026-05-05 21:46 41.96877 -87.93968 1658 ft 191 kts 269°
2026-05-05 21:46 41.97170 -87.95600 2756 ft 183 kts 306°
2026-05-05 21:46 41.98286 -87.96566 3349 ft 210 kts 346°
2026-05-05 21:47 41.99860 -87.96367 3879 ft 235 kts 12°
2026-05-05 21:47 42.01440 -87.95713 4731 ft 240 kts 15°
2026-05-05 21:47 42.03041 -87.94987 5580 ft 244 kts 15°
2026-05-05 21:47 42.04648 -87.94251 6376 ft 249 kts 15°
2026-05-05 21:48 42.06343 -87.93486 6883 ft 269 kts 14°
2026-05-05 21:48 42.08173 -87.92670 7498 ft 284 kts 14°
2026-05-05 21:48 42.10076 -87.91825 8351 ft 291 kts 13°
2026-05-05 21:48 42.12025 -87.90965 9191 ft 300 kts 12°
2026-05-05 21:49 42.14067 -87.90068 9990 ft 308 kts 12°
2026-05-05 21:49 42.16116 -87.89171 10555 ft 323 kts 12°
2026-05-05 21:49 42.18376 -87.88188 10755 ft 351 kts 12°
2026-05-05 21:49 42.20755 -87.87150 10958 ft 377 kts 13°
2026-05-05 21:50 42.23333 -87.86017 11150 ft 401 kts 13°
2026-05-05 21:50 42.26095 -87.84801 11432 ft 421 kts 13°
2026-05-05 21:50 42.28889 -87.83569 12260 ft 421 kts 13°
2026-05-05 21:50 42.31669 -87.82492 13068 ft 421 kts
2026-05-05 21:51 42.34565 -87.82003 13747 ft 420 kts 358°
2026-05-05 21:51 42.37487 -87.81707 14424 ft 422 kts 358°
2026-05-05 21:51 42.40438 -87.81395 14972 ft 429 kts 358°
2026-05-05 21:51 42.43408 -87.81038 15770 ft 428 kts 358°
2026-05-05 21:52 42.49323 -87.80494 17206 ft 421 kts 351°
2026-05-05 21:52 42.52237 -87.80683 17969 ft 418 kts 348°
2026-05-05 21:52 42.55133 -87.80936 18643 ft 416 kts 347°
2026-05-05 21:53 42.58026 -87.81180 19202 ft 418 kts 348°
2026-05-05 21:53 42.60942 -87.81395 19689 ft 421 kts 348°
2026-05-05 21:53 42.63879 -87.81589 20183 ft 424 kts 348°
2026-05-05 21:53 42.66840 -87.81687 20666 ft 434 kts 355°
2026-05-05 21:54 42.69854 -87.80701 21134 ft 459 kts 17°
2026-05-05 21:54 42.72583 -87.78308 21638 ft 478 kts 38°
2026-05-05 21:54 42.74638 -87.74706 22153 ft 489 kts 61°
2026-05-05 21:54 42.75918 -87.70419 22759 ft 489 kts 70°
2026-05-05 21:55 42.76997 -87.66036 23286 ft 489 kts 72°
2026-05-05 21:55 42.78036 -87.61631 23766 ft 489 kts 72°
2026-05-05 21:55 42.79083 -87.57238 24217 ft 488 kts 71°
2026-05-05 21:55 42.80158 -87.52860 24677 ft 487 kts 71°
2026-05-05 21:56 42.81255 -87.48506 25150 ft 485 kts 70°
2026-05-05 21:56 42.82363 -87.44176 25614 ft 484 kts 70°
2026-05-05 21:56 42.83479 -87.39840 25878 ft 488 kts 70°
2026-05-05 21:56 42.84616 -87.35423 25911 ft 498 kts 70°
2026-05-05 21:57 42.85768 -87.30931 25991 ft 507 kts 70°
2026-05-05 21:57 42.86921 -87.26418 26056 ft 515 kts 70°
2026-05-05 21:57 42.88103 -87.21772 26123 ft 523 kts 70°
2026-05-05 21:57 42.89301 -87.17055 26189 ft 530 kts 70°
2026-05-05 21:58 42.90515 -87.12269 26250 ft 537 kts 70°
2026-05-05 21:58 42.91618 -87.07371 26278 ft 544 kts 77°
2026-05-05 21:58 42.92247 -87.02311 26781 ft 537 kts 88°
2026-05-05 21:58 42.92444 -86.97262 27382 ft 529 kts 90°
2026-05-05 21:59 42.92571 -86.92260 27873 ft 525 kts 91°
2026-05-05 21:59 42.92682 -86.87304 28388 ft 521 kts 91°
2026-05-05 21:59 42.92798 -86.82386 28919 ft 516 kts 90°
2026-05-05 21:59 42.92927 -86.77520 29455 ft 511 kts 90°
2026-05-05 22:00 42.93067 -86.72701 29988 ft 506 kts 90°
2026-05-05 22:00 42.93213 -86.67935 30447 ft 500 kts 89°
2026-05-05 22:00 42.93361 -86.63206 30756 ft 499 kts 89°
2026-05-05 22:01 42.93654 -86.53610 30793 ft 512 kts 89°
2026-05-05 22:01 42.93944 -86.43802 30886 ft 522 kts 89°
2026-05-05 22:02 42.94230 -86.33810 30984 ft 532 kts 89°
2026-05-05 22:02 42.94513 -86.23640 31156 ft 538 kts 89°
2026-05-05 22:02 42.94651 -86.18590 31748 ft 528 kts 89°
2026-05-05 22:03 42.94784 -86.13613 32234 ft 522 kts 89°
2026-05-05 22:03 42.94914 -86.08691 32700 ft 515 kts 89°
2026-05-05 22:03 42.95039 -86.03847 33131 ft 510 kts 88°
2026-05-05 22:04 42.95284 -85.94083 33160 ft 519 kts 88°
2026-05-05 22:04 42.95522 -85.84232 33255 ft 527 kts 89°
2026-05-05 22:05 42.95757 -85.74164 33338 ft 534 kts 89°
2026-05-05 22:05 42.95873 -85.69091 33485 ft 534 kts 89°
2026-05-05 22:05 42.95985 -85.64084 34088 ft 522 kts 88°
2026-05-05 22:05 42.96093 -85.59153 34386 ft 519 kts 88°
2026-05-05 22:06 42.96200 -85.54193 34353 ft 524 kts 88°
2026-05-05 22:06 42.96304 -85.49225 34575 ft 520 kts 88°
2026-05-05 22:06 42.96404 -85.44343 35063 ft 512 kts 88°
2026-05-05 22:06 42.96503 -85.39454 34938 ft 519 kts 88°
2026-05-05 22:07 42.96600 -85.34524 35011 ft 520 kts 89°
2026-05-05 22:07 42.96790 -85.24569 34990 ft 528 kts 89°
2026-05-05 22:08 42.96975 -85.14482 34980 ft 535 kts 89°
2026-05-05 22:08 42.97375 -85.04290 34943 ft 541 kts 80°
2026-05-05 22:09 42.99325 -84.94397 35025 ft 541 kts 68°
2026-05-05 22:09 43.01741 -84.84597 34977 ft 548 kts 68°
2026-05-05 22:10 43.04138 -84.74649 34957 ft 553 kts 69°
2026-05-05 22:10 43.06480 -84.64597 34957 ft 557 kts 70°
2026-05-05 22:11 43.08806 -84.54475 34948 ft 559 kts 70°
2026-05-05 22:11 43.11137 -84.44314 34959 ft 560 kts 70°
2026-05-05 22:12 43.13452 -84.34195 34953 ft 561 kts 70°
2026-05-05 22:12 43.15775 -84.24002 34955 ft 561 kts 70°
2026-05-05 22:13 43.18090 -84.13793 34952 ft 561 kts 70°
2026-05-05 22:13 43.20395 -84.03578 34946 ft 561 kts 71°
2026-05-05 22:14 43.22690 -83.93365 34929 ft 561 kts 71°
2026-05-05 22:14 43.24070 -83.82852 34920 ft 561 kts 88°
2026-05-05 22:15 43.24271 -83.72180 34925 ft 561 kts 90°
2026-05-05 22:15 43.24419 -83.61563 34910 ft 547 kts 89°
2026-05-05 22:15 43.24518 -83.56403 34902 ft 536 kts 89°
2026-05-05 22:16 43.24629 -83.51311 34934 ft 533 kts 89°
2026-05-05 22:16 43.24863 -83.41166 34918 ft 531 kts 89°
2026-05-05 22:17 43.25088 -83.31082 34930 ft 528 kts 89°
2026-05-05 22:17 43.25299 -83.21014 34917 ft 527 kts 89°
2026-05-05 22:18 43.25498 -83.10971 34942 ft 527 kts 89°
2026-05-05 22:18 43.25689 -83.00915 34936 ft 528 kts 89°
2026-05-05 22:19 43.25872 -82.90835 34938 ft 529 kts 89°
2026-05-05 22:19 43.26046 -82.80736 34933 ft 531 kts 89°
2026-05-05 22:20 43.26214 -82.70605 34935 ft 532 kts 89°
2026-05-05 22:20 43.26416 -82.60457 34946 ft 533 kts 89°
2026-05-05 22:21 43.26638 -82.50291 34938 ft 533 kts 89°
2026-05-05 22:21 43.26842 -82.40126 34925 ft 533 kts 89°
2026-05-05 22:22 43.27033 -82.29976 34941 ft 532 kts 89°
2026-05-05 22:22 43.26511 -82.19902 34937 ft 526 kts 105°
2026-05-05 22:22 43.25683 -82.15040 35042 ft 523 kts 108°
2026-05-05 22:23 43.24760 -82.10209 34955 ft 524 kts 109°
2026-05-05 22:23 43.22899 -82.00548 34955 ft 525 kts 108°
2026-05-05 22:24 43.21140 -81.90833 34962 ft 525 kts 107°
2026-05-05 22:24 43.19440 -81.81103 34943 ft 525 kts 107°
2026-05-05 22:25 43.17742 -81.71385 34965 ft 524 kts 107°
2026-05-05 22:25 43.16318 -81.63320 34961 ft 524 kts 107°
2026-05-05 22:26 43.14594 -81.53630 34950 ft 524 kts 107°
2026-05-05 22:26 43.12862 -81.43953 34962 ft 523 kts 107°
2026-05-05 22:27 43.11124 -81.34283 34946 ft 523 kts 107°
2026-05-05 22:27 43.09379 -81.24629 34945 ft 522 kts 107°
2026-05-05 22:28 43.07631 -81.15001 34951 ft 521 kts 107°
2026-05-05 22:28 43.06312 -81.05250 34910 ft 524 kts 95°
2026-05-05 22:28 43.06104 -81.00294 35041 ft 521 kts 94°
2026-05-05 22:29 43.05942 -80.95344 34980 ft 523 kts 93°
2026-05-05 22:29 43.05621 -80.85410 34979 ft 522 kts 94°
2026-05-05 22:30 43.05239 -80.75497 34976 ft 522 kts 94°
2026-05-05 22:30 43.04813 -80.65596 34969 ft 522 kts 94°
2026-05-05 22:31 43.04372 -80.55708 34995 ft 520 kts 94°
2026-05-05 22:31 43.03926 -80.45837 34973 ft 520 kts 94°
2026-05-05 22:32 43.03477 -80.36046 34986 ft 519 kts 94°
2026-05-05 22:32 43.03018 -80.26195 34966 ft 519 kts 94°
2026-05-05 22:33 43.02551 -80.16357 34964 ft 518 kts 94°
2026-05-05 22:33 43.02077 -80.06538 34962 ft 518 kts 94°
2026-05-05 22:34 43.01594 -79.96728 34966 ft 517 kts 94°
2026-05-05 22:34 43.01103 -79.86929 34966 ft 517 kts 94°
2026-05-05 22:35 43.00605 -79.77145 34965 ft 516 kts 94°
2026-05-05 22:35 43.00099 -79.67378 34974 ft 515 kts 95°
2026-05-05 22:36 42.99585 -79.57624 34976 ft 514 kts 95°
2026-05-05 22:36 42.99064 -79.47884 34962 ft 514 kts 95°
2026-05-05 22:37 42.98535 -79.38154 34961 ft 514 kts 95°
2026-05-05 22:37 42.97998 -79.28430 34965 ft 513 kts 95°
2026-05-05 22:38 42.97454 -79.18715 34968 ft 513 kts 95°
2026-05-05 22:38 42.96902 -79.09014 34974 ft 513 kts 95°
2026-05-05 22:39 42.96342 -78.99300 34981 ft 513 kts 95°
2026-05-05 22:39 42.95498 -78.89647 34953 ft 513 kts 102°
2026-05-05 22:39 42.94653 -78.84943 34931 ft 510 kts 115°
2026-05-05 22:40 42.92953 -78.80764 34972 ft 499 kts 132°
2026-05-05 22:40 42.90610 -78.77360 34986 ft 488 kts 147°
2026-05-05 22:40 42.87819 -78.74823 35007 ft 479 kts 160°
2026-05-05 22:40 42.84762 -78.73127 34945 ft 470 kts 174°
2026-05-05 22:41 42.81584 -78.72443 35041 ft 459 kts 182°
2026-05-05 22:41 42.75171 -78.71819 34996 ft 463 kts 184°
2026-05-05 22:42 42.68703 -78.71260 34982 ft 468 kts 183°
2026-05-05 22:42 42.62194 -78.70623 34946 ft 468 kts 182°
2026-05-05 22:43 42.55747 -78.69942 34935 ft 462 kts 182°
2026-05-05 22:43 42.49391 -78.69269 34941 ft 460 kts 182°
2026-05-05 22:44 42.42976 -78.68596 34959 ft 459 kts 182°
2026-05-05 22:44 42.36609 -78.67932 34958 ft 459 kts 182°
2026-05-05 22:45 42.30233 -78.67268 34946 ft 460 kts 182°
2026-05-05 22:45 42.23884 -78.66608 34942 ft 462 kts 182°
2026-05-05 22:46 42.17463 -78.65942 34945 ft 464 kts 181°
2026-05-05 22:46 42.11007 -78.65272 34953 ft 466 kts 181°
2026-05-05 22:47 42.04522 -78.64601 34942 ft 468 kts 181°
2026-05-05 22:47 41.98016 -78.63928 34948 ft 470 kts 181°
2026-05-05 22:48 41.91488 -78.63255 34959 ft 471 kts 181°
2026-05-05 22:48 41.84947 -78.62581 34945 ft 472 kts 181°
2026-05-05 22:49 41.78422 -78.61253 34953 ft 480 kts 167°
2026-05-05 22:49 41.72282 -78.57549 35013 ft 486 kts 155°
2026-05-05 22:50 41.66354 -78.53100 34504 ft 494 kts 154°
2026-05-05 22:50 41.63350 -78.50852 33858 ft 493 kts 154°
2026-05-05 22:50 41.60366 -78.48640 33198 ft 489 kts 154°
2026-05-05 22:50 41.57388 -78.46455 32498 ft 488 kts 154°
2026-05-05 22:51 41.54406 -78.44285 31698 ft 490 kts 155°
2026-05-05 22:51 41.51407 -78.42113 30944 ft 490 kts 155°
2026-05-05 22:51 41.48413 -78.39950 30205 ft 490 kts 155°
2026-05-05 22:51 41.45411 -78.37782 29409 ft 490 kts 155°
2026-05-05 22:52 41.42413 -78.35619 28561 ft 490 kts 155°
2026-05-05 22:52 41.39418 -78.33460 27768 ft 488 kts 155°
2026-05-05 22:52 41.36433 -78.31308 26980 ft 487 kts 155°
2026-05-05 22:52 41.33457 -78.29165 26213 ft 486 kts 155°
2026-05-05 22:53 41.30488 -78.27028 25477 ft 485 kts 155°
2026-05-05 22:53 41.27531 -78.24902 24747 ft 483 kts 155°
2026-05-05 22:53 41.24576 -78.22781 24041 ft 481 kts 155°
2026-05-05 22:53 41.21631 -78.20668 23334 ft 479 kts 155°
2026-05-05 22:54 41.18704 -78.18572 22520 ft 477 kts 155°
2026-05-05 22:54 41.15796 -78.16490 21723 ft 474 kts 155°
2026-05-05 22:54 41.12905 -78.14423 20955 ft 471 kts 155°
2026-05-05 22:54 41.10032 -78.12370 20331 ft 465 kts 155°
2026-05-05 22:55 41.07245 -78.10377 20250 ft 447 kts 155°
2026-05-05 22:55 41.04536 -78.08443 19713 ft 440 kts 155°
2026-05-05 22:55 41.01836 -78.06524 19009 ft 440 kts 155°
2026-05-05 22:55 40.99143 -78.04610 18422 ft 437 kts 155°
2026-05-05 22:56 40.96512 -78.02741 17867 ft 433 kts 156°
2026-05-05 22:56 40.93871 -78.00865 17305 ft 428 kts 156°
2026-05-05 22:56 40.91310 -77.98903 16839 ft 425 kts 150°
2026-05-05 22:56 40.88982 -77.96468 16335 ft 428 kts 143°
2026-05-05 22:57 40.86724 -77.93879 16005 ft 430 kts 142°
2026-05-05 22:57 40.84485 -77.91263 16038 ft 431 kts 142°
2026-05-05 22:57 40.82225 -77.88626 16016 ft 435 kts 142°
2026-05-05 22:57 40.79949 -77.85985 16015 ft 436 kts 142°
2026-05-05 22:58 40.77668 -77.83357 16009 ft 435 kts 142°
2026-05-05 22:58 40.75383 -77.80739 16019 ft 435 kts 143°
2026-05-05 22:58 40.73103 -77.78140 16012 ft 435 kts 143°
2026-05-05 22:58 40.70800 -77.75521 15976 ft 435 kts 143°
2026-05-05 22:59 40.68515 -77.72926 15983 ft 434 kts 143°
2026-05-05 22:59 40.66187 -77.70396 15993 ft 433 kts 146°
2026-05-05 22:59 40.63829 -77.67929 15988 ft 433 kts 145°
2026-05-05 22:59 40.61467 -77.65466 15982 ft 434 kts 145°
2026-05-05 23:00 40.56733 -77.60542 15971 ft 426 kts 145°
2026-05-05 23:00 40.54456 -77.58166 15971 ft 409 kts 145°
2026-05-05 23:00 40.52257 -77.55863 15963 ft 403 kts 145°
2026-05-05 23:01 40.50071 -77.53574 15959 ft 401 kts 144°
2026-05-05 23:01 40.47902 -77.51298 15979 ft 399 kts 145°
2026-05-05 23:01 40.45729 -77.49024 15978 ft 400 kts 145°
2026-05-05 23:01 40.43552 -77.46749 15987 ft 400 kts 145°
2026-05-05 23:02 40.41361 -77.44464 15927 ft 405 kts 145°
2026-05-05 23:02 40.39158 -77.42168 15686 ft 403 kts 145°
2026-05-05 23:02 40.36982 -77.39900 15575 ft 397 kts 145°
2026-05-05 23:02 40.34827 -77.37652 15442 ft 396 kts 145°
2026-05-05 23:03 40.32695 -77.35426 15321 ft 397 kts 145°
2026-05-05 23:03 40.30505 -77.33139 15199 ft 398 kts 145°
2026-05-05 23:03 40.28369 -77.30910 15064 ft 398 kts 145°
2026-05-05 23:03 40.26205 -77.28655 14958 ft 398 kts 145°
2026-05-05 23:04 40.24044 -77.26400 14837 ft 397 kts 145°
2026-05-05 23:04 40.21888 -77.24146 14741 ft 396 kts 145°
2026-05-05 23:04 40.19741 -77.21897 14645 ft 395 kts 145°
2026-05-05 23:04 40.17604 -77.19657 14548 ft 394 kts 145°
2026-05-05 23:05 40.15469 -77.17419 14451 ft 393 kts 145°
2026-05-05 23:05 40.13335 -77.15180 14351 ft 392 kts 145°
2026-05-05 23:05 40.11207 -77.12948 14261 ft 392 kts 145°
2026-05-05 23:05 40.09081 -77.10717 14163 ft 392 kts 145°
2026-05-05 23:06 40.06956 -77.08492 14077 ft 392 kts 145°
2026-05-05 23:06 40.04834 -77.06268 13984 ft 392 kts 145°
2026-05-05 23:06 40.02709 -77.04038 13891 ft 391 kts 145°
2026-05-05 23:06 40.00586 -77.01810 13796 ft 391 kts 145°
2026-05-05 23:07 39.98470 -76.99588 13703 ft 391 kts 145°
2026-05-05 23:07 39.96347 -76.97360 13603 ft 392 kts 145°
2026-05-05 23:07 39.94226 -76.95133 13497 ft 391 kts 145°
2026-05-05 23:07 39.92105 -76.92910 13389 ft 391 kts 145°
2026-05-05 23:08 39.89994 -76.90686 13269 ft 389 kts 148°
2026-05-05 23:08 39.87696 -76.88881 13147 ft 383 kts 159°
2026-05-05 23:08 39.85279 -76.87495 13047 ft 380 kts 162°
2026-05-05 23:08 39.82826 -76.86194 12921 ft 379 kts 163°
2026-05-05 23:09 39.80358 -76.85026 12777 ft 377 kts 166°
2026-05-05 23:09 39.77874 -76.83950 12652 ft 375 kts 167°
2026-05-05 23:09 39.75402 -76.82906 12513 ft 373 kts 167°
2026-05-05 23:09 39.72940 -76.81870 12388 ft 371 kts 167°
2026-05-05 23:10 39.70484 -76.80842 12294 ft 370 kts 167°
2026-05-05 23:10 39.68036 -76.79839 12195 ft 368 kts 167°
2026-05-05 23:10 39.65595 -76.78869 12093 ft 366 kts 168°
2026-05-05 23:10 39.63192 -76.77922 11985 ft 366 kts 168°
2026-05-05 23:11 39.60763 -76.76970 11900 ft 365 kts 168°
2026-05-05 23:11 39.58334 -76.76022 11806 ft 364 kts 168°
2026-05-05 23:11 39.55908 -76.75077 11715 ft 364 kts 168°
2026-05-05 23:11 39.53481 -76.74152 11631 ft 363 kts 168°
2026-05-05 23:12 39.51057 -76.73253 11523 ft 363 kts 169°
2026-05-05 23:12 39.48616 -76.72421 11432 ft 363 kts 171°
2026-05-05 23:12 39.46166 -76.71633 11327 ft 363 kts 171°
2026-05-05 23:12 39.43713 -76.70868 11242 ft 362 kts 172°
2026-05-05 23:13 39.41261 -76.70174 11125 ft 361 kts 173°
2026-05-05 23:13 39.38800 -76.69502 11026 ft 361 kts 173°
2026-05-05 23:13 39.36352 -76.68781 10919 ft 361 kts 170°
2026-05-05 23:13 39.34709 -76.68281 10857 ft 359 kts 172°
2026-05-05 23:14 39.32263 -76.67662 10748 ft 357 kts 174°
2026-05-05 23:14 39.29846 -76.67105 10603 ft 348 kts 175°
2026-05-05 23:14 39.27492 -76.66568 10460 ft 339 kts 175°
2026-05-05 23:14 39.25197 -76.66042 10326 ft 331 kts 175°
2026-05-05 23:15 39.22945 -76.65527 10200 ft 326 kts 175°
2026-05-05 23:15 39.20746 -76.65409 10073 ft 310 kts 192°
2026-05-05 23:15 39.18659 -76.65747 10044 ft 295 kts 194°
2026-05-05 23:15 39.16816 -76.66635 10004 ft 275 kts 217°
2026-05-05 23:16 39.15298 -76.68074 9765 ft 277 kts 225°
2026-05-05 23:16 39.13876 -76.69752 9528 ft 279 kts 227°
2026-05-05 23:16 39.12445 -76.71510 9296 ft 281 kts 227°
2026-05-05 23:16 39.11053 -76.73214 9032 ft 283 kts 226°
2026-05-05 23:17 39.09612 -76.74960 8738 ft 282 kts 226°
2026-05-05 23:17 39.08185 -76.76672 8463 ft 279 kts 225°
2026-05-05 23:17 39.06770 -76.78359 8171 ft 276 kts 225°
2026-05-05 23:17 39.05369 -76.80023 7911 ft 272 kts 225°
2026-05-05 23:18 39.03983 -76.81665 7621 ft 270 kts 224°
2026-05-05 23:18 39.02610 -76.83290 7346 ft 267 kts 224°
2026-05-05 23:18 39.01247 -76.84899 7054 ft 265 kts 224°
2026-05-05 23:18 38.99896 -76.86493 6794 ft 262 kts 223°
2026-05-05 23:19 38.98566 -76.88074 6518 ft 259 kts 226°
2026-05-05 23:19 38.97609 -76.90005 6242 ft 256 kts 247°
2026-05-05 23:19 38.97268 -76.92201 6020 ft 248 kts 266°
2026-05-05 23:19 38.97338 -76.94321 6017 ft 231 kts 268°
2026-05-05 23:20 38.97413 -76.96363 6010 ft 228 kts 268°
2026-05-05 23:20 38.97484 -76.98406 6004 ft 230 kts 268°
2026-05-05 23:20 38.97555 -77.00434 5994 ft 223 kts 268°
2026-05-05 23:20 38.97798 -77.02355 5971 ft 220 kts 288°
2026-05-05 23:21 38.98630 -77.04014 5962 ft 227 kts 306°
2026-05-05 23:21 38.99788 -77.05471 5651 ft 237 kts 311°
2026-05-05 23:21 39.01014 -77.06904 5323 ft 238 kts 311°
2026-05-05 23:21 39.02223 -77.08327 4970 ft 235 kts 311°
2026-05-05 23:22 39.03424 -77.09757 4559 ft 236 kts 311°
2026-05-05 23:22 39.04616 -77.11210 4131 ft 236 kts 309°
2026-05-05 23:22 39.05721 -77.12750 3698 ft 232 kts 298°
2026-05-05 23:22 39.06401 -77.14582 3277 ft 223 kts 279°
2026-05-05 23:23 39.06553 -77.16503 3042 ft 207 kts 259°
2026-05-05 23:23 39.06184 -77.18251 3010 ft 198 kts 240°
2026-05-05 23:23 39.05409 -77.19589 2990 ft 178 kts 222°
2026-05-05 23:23 39.04527 -77.20573 2989 ft 159 kts 219°
2026-05-05 23:24 39.03628 -77.21337 3001 ft 155 kts 203°
2026-05-05 23:24 39.02563 -77.21519 3008 ft 159 kts 178°
2026-05-05 23:24 39.01496 -77.21045 3015 ft 169 kts 155°
2026-05-05 23:24 39.00617 -77.19983 3015 ft 178 kts 136°
2026-05-05 23:25 38.99845 -77.18729 3003 ft 180 kts 136°
2026-05-05 23:25 38.99062 -77.17476 3015 ft 179 kts 136°
2026-05-05 23:25 38.98274 -77.16238 2986 ft 178 kts 138°
2026-05-05 23:25 38.97462 -77.15050 2974 ft 174 kts 139°
2026-05-05 23:26 38.96636 -77.13931 2985 ft 172 kts 149°
2026-05-05 23:26 38.95677 -77.13017 3023 ft 172 kts 151°
2026-05-05 23:26 38.94689 -77.12100 2905 ft 176 kts 151°
2026-05-05 23:26 38.93706 -77.11193 2723 ft 173 kts 151°
2026-05-05 23:27 38.92743 -77.10265 2462 ft 173 kts 148°
2026-05-05 23:27 38.91861 -77.09212 2217 ft 173 kts 141°
2026-05-05 23:27 38.91011 -77.08137 1858 ft 172 kts 142°
2026-05-05 23:27 38.90206 -77.07020 1547 ft 170 kts 140°
2026-05-05 23:28 38.89377 -77.05981 1228 ft 164 kts 146°
2026-05-05 23:28 38.88477 -77.05081 858 ft 164 kts 149°
2026-05-05 23:28 38.87498 -77.04354 538 ft 162 kts 159°
2026-05-05 23:28 38.86451 -77.03924 191 ft 156 kts 175°
2026-05-05 23:29 38.85400 -77.03798 23 ft 143 kts 175°
2026-05-05 23:29 38.84674 -77.03731 20 ft 71 kts 175°
2026-05-05 23:29 38.84395 -77.03779 21 ft 15 kts 260°
2026-05-05 23:29 38.84396 -77.03806 22 ft 0 kts 284°
2026-05-05 23:30 38.84446 -77.03850 23 ft 12 kts 353°
2026-05-05 23:31 38.84572 -77.03859 19 ft 22 kts 356°
2026-05-05 23:31 38.84724 -77.03875 23 ft 19 kts 350°
2026-05-05 23:31 38.84756 -77.03929 20 ft 8 kts 273°
2026-05-05 23:31 38.84762 -77.03948 20 ft 2 kts 333°
2026-05-05 23:32 38.84816 -77.03943 19 ft 13 kts
2026-05-05 23:32 38.84937 -77.03955 17 ft 21 kts 356°
2026-05-05 23:32 38.85070 -77.04003 17 ft 18 kts 306°
2026-05-05 23:32 38.85121 -77.04071 17 ft 8 kts 321°
2026-05-05 23:33 38.85154 -77.04105 19 ft 3 kts 321°